Theta_e
317 319 320 321 322 323 324 324 324 325 325 325 326 326 326 326 327 327 328 328 329 329 329 329 328 327 327 326 325 325 325 324 323 322 322 322 320 319 318 318 318 318 316 314 313 313 312 312 309 305 300 295 291 291 290 289 289 289 289 289 288 288 290 292 294 293 293 290 288 288 287 286 286 286 285 285 285 285 285 285 285 285 285 285 285
315 317 318 320 321 322 323 323 323 324 325 325 325 325 326 326 327 327 328 328 328 329 329 328 327 327 326 325 324 324 324 324 323 322 322 321 318 316 317 318 317 316 314 313 313 311 311 310 305 298 294 292 290 290 289 288 288 288 288 288 288 286 286 288 291 291 291 290 288 287 287 286 286 286 285 285 285 285 285 285 285 285 285 285 285
313 315 317 318 319 321 321 322 323 323 324 325 325 325 325 326 327 327 328 328 328 328 328 327 326 326 325 324 324 323 323 323 322 321 320 320 318 316 316 316 316 315 314 313 311 310 308 304 297 292 291 290 289 289 288 288 288 287 287 287 286 286 285 286 288 289 289 289 288 287 286 286 286 285 285 285 285 285 285 285 285 285 285 285 285
312 313 315 317 318 319 320 321 322 323 323 324 325 325 325 326 327 327 327 327 327 327 327 325 325 325 324 323 323 322 321 321 321 319 319 319 318 316 315 315 314 314 313 312 309 306 302 296 291 290 290 289 289 288 288 287 287 286 287 286 285 285 285 285 286 287 288 288 288 287 286 286 285 285 285 285 285 285 286 286 286 285 285 285 285
311 312 314 315 317 318 319 320 321 322 323 324 324 325 325 326 326 326 327 327 326 325 325 323 323 323 322 322 322 321 320 320 319 318 318 318 317 316 315 313 312 312 311 308 304 299 294 291 290 290 289 288 288 288 287 287 287 286 286 286 285 285 285 285 285 285 287 288 288 287 286 286 286 286 285 285 285 286 286 286 285 285 285 285 284
311 312 313 314 315 317 318 319 321 322 323 323 324 324 325 325 326 326 325 325 325 324 323 322 321 321 321 321 321 321 320 319 318 317 317 316 315 315 314 311 310 309 306 302 297 293 290 290 290 289 288 288 288 287 287 286 286 286 285 285 285 285 285 285 285 285 286 287 287 287 287 286 286 286 285 285 285 286 286 285 285 285 285 284 284
311 312 313 313 314 316 317 318 320 321 322 323 323 324 324 324 325 325 324 323 323 323 321 320 320 320 321 321 320 320 319 318 317 317 316 315 314 313 311 309 307 304 299 294 291 290 290 289 289 288 288 288 287 287 287 286 286 286 285 285 285 285 285 285 285 286 286 287 287 287 286 286 286 286 285 285 285 285 284 284 284 285 284 284 284
311 312 313 314 315 315 316 318 319 321 322 322 323 323 323 323 324 323 322 321 322 322 321 320 320 319 319 319 319 318 317 317 316 315 314 313 312 310 308 307 302 296 292 290 289 289 289 288 288 287 287 287 287 287 286 286 286 285 285 285 285 285 286 286 286 286 286 286 287 286 286 286 286 286 285 285 284 284 283 283 284 284 284 284 283
312 313 315 316 316 317 317 318 319 320 321 321 321 322 322 321 322 321 320 320 320 320 320 320 318 317 316 317 317 316 316 315 315 314 313 312 309 307 305 302 296 291 289 289 289 288 288 288 287 287 287 287 287 286 286 286 286 285 285 285 284 285 286 286 286 286 286 286 286 286 286 286 286 285 284 284 283 283 283 283 283 283 283 283 283
313 314 315 316 317 317 317 318 318 319 320 320 320 320 319 319 320 320 319 319 319 318 317 316 316 315 315 315 314 314 314 314 313 312 312 311 307 303 300 295 291 289 289 288 288 287 287 287 286 286 286 286 286 286 286 285 285 285 285 284 284 284 284 285 286 286 286 286 286 285 285 285 285 284 283 283 282 282 282 282 282 282 282 282 282
314 315 316 316 316 317 317 317 317 318 319 319 318 317 317 318 319 318 316 316 316 315 315 314 314 315 315 314 313 312 312 312 311 310 309 308 305 300 294 290 289 289 288 288 287 287 286 286 286 286 286 286 286 285 285 285 285 285 284 284 284 284 284 284 285 285 285 285 285 284 285 285 284 283 282 282 282 282 282 282 281 281 281 281 281
314 315 316 316 316 316 316 316 317 317 318 317 316 316 316 316 316 315 314 314 314 313 314 314 314 314 313 312 311 310 310 310 309 308 306 303 300 294 290 289 289 288 288 287 287 286 286 286 286 285 285 285 285 284 284 284 284 284 284 284 283 283 283 283 283 283 283 283 284 284 284 283 283 282 281 281 281 281 281 281 281 281 280 280 280
314 314 315 316 315 315 316 316 316 316 316 315 314 314 315 314 313 313 313 313 313 313 313 312 312 311 310 310 309 308 308 307 306 306 304 299 293 290 289 289 289 288 288 287 287 286 286 286 285 285 285 285 284 284 284 284 284 284 283 283 283 283 282 282 282 282 282 282 282 282 282 282 281 281 281 281 281 280 280 280 280 280 279 279 279
313 314 315 315 314 314 315 315 315 314 314 313 312 312 313 312 312 312 313 313 312 312 311 310 310 309 309 308 307 305 304 304 303 302 298 293 290 289 289 289 288 288 287 287 287 286 286 286 285 285 285 284 283 283 283 283 283 283 282 282 282 282 282 281 281 281 281 280 281 281 281 280 280 280 280 280 280 279 279 279 279 279 278 278 278
312 313 314 314 313 314 314 313 313 313 312 311 309 309 309 310 309 310 311 312 312 311 310 309 308 308 307 306 303 301 300 299 297 295 292 289 289 289 289 288 288 287 287 287 286 286 286 286 285 285 284 283 283 283 284 283 283 282 282 282 282 281 281 281 281 281 281 280 280 280 280 279 280 280 280 279 278 278 278 278 277 277 277 277 278
310 311 313 313 313 313 312 311 310 310 310 309 308 307 307 308 308 309 310 310 310 310 309 308 308 307 305 303 300 297 295 293 291 290 289 289 288 288 288 288 287 286 286 286 286 286 285 285 285 285 284 283 283 284 284 283 283 282 282 282 281 281 281 281 281 281 280 280 280 280 279 279 279 279 278 277 277 277 277 277 277 276 276 277 278
309 310 311 312 313 312 311 310 309 308 307 307 306 306 306 307 307 308 309 308 307 307 306 306 306 306 303 300 297 294 291 289 289 289 288 288 288 288 287 287 286 286 286 285 285 285 285 285 285 284 284 283 283 283 283 283 283 282 282 281 281 280 280 280 280 280 280 280 280 280 279 279 278 278 277 277 276 276 276 276 276 276 276 277 277
307 308 309 310 311 311 311 309 308 308 306 306 305 305 305 306 306 306 307 307 305 305 304 304 303 301 299 296 293 291 289 288 288 288 288 288 287 287 287 286 286 285 285 285 285 285 285 284 284 284 284 284 284 283 283 283 282 282 282 281 281 280 280 279 279 280 280 279 279 279 279 279 278 278 277 277 277 277 276 275 275 275 275 276 276
306 306 307 308 308 308 309 309 309 309 308 306 306 306 305 305 305 305 305 305 304 303 302 301 298 295 294 292 290 289 288 288 288 287 287 287 287 287 286 286 286 285 285 284 284 284 284 284 284 284 284 284 284 283 282 282 282 281 281 281 281 281 280 280 279 279 279 279 279 279 278 278 278 277 277 277 277 277 276 275 274 274 274 275 275
305 305 306 307 306 306 307 308 308 309 309 307 306 305 305 304 304 303 302 302 302 301 299 297 294 290 289 289 288 288 288 287 287 287 287 287 286 286 286 286 286 285 285 284 284 284 283 283 283 283 283 284 283 283 282 282 281 281 281 281 281 280 280 279 279 279 278 278 278 278 278 278 278 277 277 276 276 276 276 275 274 274 273 273 274
304 305 305 306 306 306 306 306 307 307 307 306 304 303 303 304 303 302 300 299 299 298 295 292 290 288 288 288 288 288 287 287 287 287 286 286 286 286 286 286 287 286 285 285 284 283 283 282 282 283 283 283 283 282 282 281 281 281 281 280 280 279 279 279 278 278 278 278 278 277 277 277 277 276 275 275 275 275 274 275 275 274 273 272 273
303 304 304 305 306 306 305 305 306 305 304 304 302 300 300 301 302 300 299 298 297 295 291 289 288 287 287 287 287 287 287 287 286 286 286 286 286 286 286 286 286 286 286 285 284 283 283 283 283 283 283 282 282 282 281 281 280 280 280 280 279 279 278 278 277 277 277 277 276 276 276 276 275 274 273 273 273 273 273 273 274 274 273 273 273
303 303 303 304 304 305 305 305 304 303 302 301 301 300 298 298 297 296 296 295 293 290 288 287 287 286 286 286 286 286 286 286 286 285 285 285 285 285 285 286 286 286 286 286 285 284 284 283 283 283 282 282 281 281 281 280 280 280 279 279 279 278 278 277 277 277 276 276 275 275 275 274 273 272 272 272 272 272 272 272 272 273 273 273 273
302 302 302 302 302 302 303 302 301 300 300 299 298 297 295 294 293 293 293 293 290 288 286 286 286 285 285 285 285 285 285 285 285 285 285 285 285 285 285 285 285 285 285 286 285 284 284 283 283 283 282 281 281 280 280 280 279 279 279 279 278 277 277 277 276 276 275 275 274 274 273 273 272 272 271 271 271 271 272 272 272 272 272 272 273
300 300 300 300 300 300 299 298 298 298 298 297 295 293 291 291 291 290 290 290 288 287 285 285 285 285 285 284 284 284 284 284 284 284 284 284 284 284 284 284 284 284 285 285 285 284 284 283 283 282 281 281 280 279 279 279 279 279 278 278 277 277 277 276 275 275 274 274 273 273 273 272 272 271 270 270 271 271 271 271 271 271 272 272 272
299 299 298 297 297 297 296 295 294 295 294 294 294 293 291 290 289 289 288 288 287 286 285 285 285 285 284 284 284 284 283 284 283 283 283 283 283 283 283 284 284 284 284 284 284 284 283 282 282 281 281 280 279 279 278 278 278 278 278 277 277 276 276 275 275 274 274 273 273 273 272 272 271 271 270 271 271 270 270 271 271 270 270 270 270
297 297 296 295 294 294 294 292 291 291 291 291 291 291 290 290 290 289 287 286 286 286 285 285 285 284 284 284 284 283 283 283 283 283 283 282 282 283 283 283 283 283 283 283 283 283 282 281 281 280 279 279 278 278 278 277 278 277 277 276 276 276 275 274 274 274 273 273 272 272 272 272 271 271 271 271 270 269 269 270 269 269 269 269 269
295 295 294 293 292 292 292 291 290 289 289 289 290 290 290 290 291 291 290 288 286 286 285 285 285 285 284 284 283 283 282 282 283 283 283 283 283 283 283 283 283 283 283 282 282 281 280 280 280 279 278 278 277 277 276 277 277 277 276 276 276 275 274 273 273 273 273 272 272 272 271 271 271 271 271 270 270 269 269 269 269 269 269 268 269
292 292 291 291 290 290 290 289 289 289 289 288 288 289 290 290 290 291 291 290 288 287 286 285 285 285 285 284 284 283 282 284 285 284 284 284 284 284 284 284 283 283 283 282 281 280 280 279 279 278 277 277 276 275 275 275 276 275 275 275 275 274 273 273 273 272 272 272 271 271 271 270 270 270 270 270 269 269 269 269 269 269 268 268 268
290 289 289 288 289 289 289 288 288 288 288 287 287 287 288 288 288 288 288 288 287 286 286 285 285 285 285 285 285 284 284 285 286 285 284 284 284 284 284 284 283 283 282 281 280 280 279 279 278 277 277 276 275 275 275 275 275 275 275 274 274 273 273 273 272 272 272 271 271 271 270 270 270 270 270 269 269 269 269 269 269 268 267 267 267
289 288 288 288 288 288 288 287 287 287 286 286 286 285 285 285 285 285 285 285 285 285 285 285 285 284 284 284 285 285 285 285 285 284 284 284 284 284 283 283 283 282 281 281 280 280 279 279 277 276 276 276 276 276 276 276 275 275 274 274 273 273 272 272 272 272 271 271 271 270 270 270 269 269 269 269 269 269 268 268 268 268 267 266 266
290 289 288 288 288 287 287 286 286 285 285 285 285 284 284 283 283 283 283 284 284 284 284 284 284 284 284 284 284 284 284 284 284 284 284 283 283 283 283 282 282 281 281 280 280 279 278 278 277 276 276 276 276 277 277 276 276 275 275 274 273 272 272 272 272 272 271 271 270 270 270 269 269 269 269 268 268 268 268 268 267 267 267 266 266
291 290 288 287 286 285 285 285 284 284 284 284 283 283 283 283 283 283 282 282 282 283 283 283 283 283 284 283 283 283 284 283 284 284 283 283 283 282 282 282 281 280 280 279 279 278 278 277 277 277 277 277 277 277 277 277 276 275 274 274 273 273 273 272 272 271 271 271 270 269 269 269 269 268 268 268 267 267 267 267 266 266 265 265 265
289 289 288 288 286 285 284 284 284 283 283 283 283 283 283 283 283 283 282 282 281 282 282 282 283 283 283 283 283 283 283 283 283 283 283 283 282 282 281 281 280 280 279 279 278 278 277 276 276 277 278 278 278 278 277 277 276 275 274 273 273 273 272 272 271 271 270 270 270 269 269 268 268 268 268 267 267 266 266 266 265 265 264 264 264
287 287 287 287 286 285 285 284 284 283 283 283 283 282 282 283 283 283 283 282 282 282 282 282 282 282 282 282 282 282 282 282 282 282 282 282 282 281 281 280 279 279 279 278 277 277 276 277 277 278 278 278 278 278 277 277 276 275 274 273 272 272 272 271 271 270 270 269 269 268 268 268 268 267 267 267 266 266 266 266 265 264 264 263 263
286 285 285 285 285 285 284 284 283 283 282 282 282 282 282 282 282 282 282 282 282 282 282 282 282 281 281 281 281 282 282 282 282 281 281 281 281 281 280 280 279 279 279 278 278 277 277 278 279 279 278 278 278 278 277 276 275 274 274 273 272 272 271 271 271 270 269 269 268 268 268 268 267 267 267 266 266 266 266 266 265 265 264 263 263
285 284 284 284 284 284 283 283 283 283 282 282 281 281 281 281 281 281 282 282 282 282 282 282 282 281 281 281 281 281 281 281 281 280 281 281 281 281 281 280 280 279 279 278 278 277 276 277 278 279 278 278 278 278 277 276 275 274 273 273 272 272 271 271 271 270 269 268 268 268 268 267 267 267 266 266 265 265 265 265 264 264 264 263 263
284 284 284 283 283 282 282 282 282 281 281 280 280 280 280 280 280 281 281 282 282 282 282 282 282 281 281 281 281 280 280 280 280 280 281 281 281 281 281 280 280 279 279 279 279 278 276 276 277 278 278 278 278 277 277 276 275 274 273 272 272 271 270 270 269 269 269 268 268 268 268 267 267 266 266 266 265 265 264 264 264 264 264 263 263
283 283 282 282 281 281 281 281 280 280 280 279 279 279 279 280 280 280 280 281 281 281 282 282 281 281 281 281 281 280 280 280 280 281 281 281 281 281 280 280 279 279 279 279 280 279 277 276 276 277 278 278 277 277 276 275 274 274 273 272 271 271 270 269 269 269 269 268 268 268 267 267 267 266 266 266 266 265 264 264 263 263 263 263 263
282 281 281 281 280 280 280 280 279 279 279 279 279 279 279 279 279 280 280 280 281 281 281 281 281 281 281 281 280 280 280 280 281 281 281 281 281 281 280 280 279 279 279 279 279 279 278 277 277 277 278 277 277 277 276 275 274 273 272 272 271 271 270 270 270 269 269 269 268 268 267 267 267 266 266 266 265 265 264 264 263 263 262 262 263
281 280 280 279 279 279 278 278 278 278 278 278 278 278 279 279 279 279 279 280 280 280 280 281 281 281 280 280 280 280 280 280 281 281 281 281 281 281 280 280 279 278 278 277 277 277 278 278 278 278 278 278 277 276 275 274 273 273 272 271 271 271 270 270 270 270 269 269 268 268 268 267 267 266 266 266 265 265 264 264 263 263 262 262 262
280 279 279 278 278 278 277 277 277 277 277 277 277 277 278 278 278 278 279 279 279 279 280 280 280 280 280 280 280 280 280 280 280 280 281 281 280 280 280 280 279 278 278 277 276 276 277 277 277 278 279 279 278 276 275 274 273 272 272 271 271 271 271 270 270 270 269 269 269 268 268 268 267 266 266 266 265 265 264 264 263 263 262 261 261
279 279 279 278 277 277 277 277 277 276 276 276 277 277 277 277 277 277 278 278 278 278 279 279 279 279 279 279 279 279 279 279 279 280 280 280 280 280 279 279 279 278 278 277 276 276 276 276 276 277 279 279 278 277 275 274 273 273 272 271 271 271 271 271 270 270 270 269 269 269 268 267 267 267 266 266 266 265 265 264 264 263 261 260 260
279 278 278 277 277 276 276 276 276 275 275 276 276 276 276 276 276 276 277 277 277 277 277 278 278 278 278 278 278 278 278 278 279 279 279 279 279 279 278 278 278 278 278 278 277 275 275 276 276 277 279 279 278 276 275 275 274 273 273 272 271 271 271 271 271 270 270 270 270 269 268 267 267 267 266 266 266 266 265 265 264 263 262 261 260
279 278 277 277 276 276 275 275 275 275 275 275 274 275 275 275 275 276 276 276 276 276 276 277 277 277 277 277 277 277 277 278 278 278 278 278 278 278 278 277 277 277 277 278 278 277 276 276 276 277 279 279 277 276 275 274 273 272 272 272 271 271 271 272 272 271 270 270 269 269 268 268 267 267 267 267 266 266 266 265 265 264 262 261 260
278 277 277 276 275 275 274 274 274 274 274 274 274 274 274 274 274 275 275 275 275 275 275 276 276 276 276 276 276 276 276 276 277 277 278 278 278 278 277 277 277 277 277 278 278 277 277 276 277 278 279 279 278 276 275 274 273 272 271 271 271 271 271 271 271 270 269 269 269 268 268 268 267 267 267 266 266 266 265 265 264 263 263 262 261
277 276 276 275 274 274 273 273 273 273 273 273 273 274 274 274 274 274 274 274 274 274 274 275 275 275 275 275 275 275 275 275 276 276 276 277 277 277 276 276 275 275 276 276 277 277 277 276 277 277 278 278 277 276 275 273 272 271 270 270 270 270 270 270 269 268 269 269 269 268 268 268 267 267 267 266 266 265 265 265 264 263 263 262 261
275 275 274 274 273 273 272 272 272 272 272 272 273 273 273 273 273 273 273 273 273 273 274 274 274 274 274 274 274 274 274 274 274 274 275 275 275 275 275 275 274 274 274 274 275 275 275 274 275 275 275 274 275 275 274 273 271 270 270 270 270 270 269 269 268 268 268 268 268 267 267 267 267 267 267 266 266 265 265 265 264 263 262 262 261
274 273 273 273 272 272 272 271 271 271 271 272 272 272 272 272 272 272 272 273 273 273 273 273 273 273 273 273 273 273 273 273 273 273 273 273 274 274 274 274 274 273 273 272 272 272 272 273 274 274 274 274 274 274 274 272 271 270 270 270 270 269 269 268 268 268 268 268 267 267 267 267 267 266 266 266 266 265 265 264 263 262 261 261 260
273 272 272 272 271 271 271 270 270 270 270 270 271 271 271 271 271 271 271 272 271 272 272 272 272 272 272 272 272 272 272 272 272 272 272 272 272 273 273 272 272 272 272 271 271 271 271 272 273 273 273 273 273 273 273 272 270 270 270 270 269 269 268 268 268 268 267 267 267 267 267 266 266 266 266 266 265 265 264 264 263 262 261 261 260
272 272 272 271 271 270 270 270 269 269 269 269 269 269 269 270 270 270 270 271 271 271 271 271 271 271 271 271 271 271 271 271 271 271 271 271 271 271 271 271 271 271 271 271 271 270 271 271 272 272 272 272 272 271 271 271 270 269 269 269 268 268 267 267 267 267 267 267 267 266 266 266 266 266 266 266 265 265 264 263 262 261 261 260 259
Wind_Speed
23 20 19 20 21 22 22 23 23 24 25 25 24 25 27 28 29 29 28 27 27 28 28 27 26 26 26 25 24 25 26 27 27 26 26 24 25 27 28 28 27 27 28 27 25 22 19 16 15 15 14 13 13 13 11 10 9 8 7 6 4 4 4 3 4 3 2 5 8 8 10 13 12 12 17 19 20 22 24 24 24 26 30 31 30
21 19 19 20 20 21 21 23 25 26 26 26 26 27 27 27 27 27 27 27 27 26 26 26 26 25 25 26 26 25 26 27 27 27 27 26 27 28 29 28 28 29 29 27 25 22 18 17 17 16 16 14 14 13 11 10 9 8 7 6 4 3 4 4 3 2 3 6 8 9 11 13 12 15 20 22 22 24 25 24 24 26 28 30 30
19 18 19 20 21 21 22 24 26 26 27 28 28 27 27 27 26 26 26 26 26 25 25 26 26 25 25 26 26 26 27 27 27 27 27 27 28 29 29 29 29 29 27 25 23 21 19 19 20 19 17 15 15 13 12 10 9 7 7 6 4 3 3 3 2 2 3 5 7 9 12 14 15 17 21 23 24 24 22 20 21 24 26 27 28
17 17 18 20 22 22 23 25 25 25 26 27 27 26 26 26 26 25 25 24 25 25 25 25 25 26 27 27 26 27 28 27 27 28 28 28 29 30 29 29 28 26 24 23 22 22 22 22 21 20 18 17 16 14 12 11 9 8 7 5 4 3 2 2 2 1 2 4 6 9 12 13 15 17 19 22 23 20 16 15 18 20 23 26 29
15 16 16 18 21 22 22 23 23 24 25 25 25 25 25 25 25 24 24 24 24 25 24 25 25 26 27 26 26 27 27 27 28 29 28 28 28 28 28 28 26 24 22 22 23 24 24 23 22 20 19 17 16 14 12 11 9 8 6 5 4 3 3 3 3 2 1 4 7 9 10 12 13 14 16 20 21 16 13 14 16 17 21 26 30
13 14 15 18 21 21 21 22 23 23 24 24 24 24 24 24 24 23 23 24 24 24 24 25 25 26 26 26 27 28 29 29 31 31 30 29 29 28 28 28 25 23 23 25 26 25 24 23 21 20 19 17 15 14 12 11 9 7 6 6 5 5 4 3 3 2 1 4 6 8 9 11 11 12 15 19 18 16 15 15 14 12 17 25 32
14 15 16 18 20 21 21 22 22 22 23 23 22 22 23 23 23 23 24 25 25 25 25 25 25 26 28 30 30 31 32 32 31 30 29 29 29 29 29 27 25 25 26 27 27 25 23 22 20 19 18 16 15 13 12 11 9 8 7 7 7 7 5 3 1 0 2 3 4 6 8 9 9 10 14 16 14 14 17 19 18 16 17 20 26
16 15 16 18 19 20 21 21 22 22 22 22 22 22 22 23 23 24 24 24 25 25 25 25 27 29 31 33 33 34 34 33 30 29 28 28 29 28 28 28 28 29 29 28 26 24 22 20 19 18 16 15 13 12 11 10 9 9 8 8 8 7 5 3 2 1 2 3 3 5 7 8 8 10 14 15 15 15 17 19 20 21 22 20 21
17 17 17 19 20 20 21 22 22 22 22 22 23 23 23 23 23 23 23 24 25 26 26 27 30 32 34 34 34 33 33 31 30 30 29 29 29 29 30 31 32 32 30 28 25 23 22 20 19 17 15 13 12 10 10 9 9 10 10 9 9 7 5 4 2 1 1 2 3 4 6 7 8 11 13 14 15 16 18 18 18 20 23 23 23
18 19 19 20 20 20 21 21 22 22 22 23 23 23 25 25 24 24 25 26 26 27 27 29 31 33 33 32 31 30 29 28 29 29 28 28 30 33 34 34 34 33 31 29 26 24 22 21 18 16 14 12 11 10 10 10 11 11 10 10 9 7 6 4 2 1 1 2 3 4 5 6 7 10 11 12 13 16 18 18 19 20 21 23 25
19 20 20 20 20 20 21 21 22 23 22 22 23 24 25 25 25 26 27 27 27 28 29 31 32 32 31 31 30 29 28 27 27 28 28 30 34 37 37 36 35 33 31 29 28 25 23 20 18 16 14 13 12 11 12 12 11 11 10 10 9 7 6 5 3 2 0 1 2 4 4 6 8 8 9 11 13 15 16 17 18 19 19 19 21
21 21 21 20 21 22 22 22 23 23 23 23 24 26 25 25 26 28 28 28 29 31 31 31 30 29 29 29 28 28 27 26 28 30 31 34 37 37 37 36 35 33 31 29 28 26 24 21 19 17 15 14 13 13 13 12 11 11 10 9 8 7 6 5 4 3 1 1 2 3 3 5 7 7 8 11 13 14 15 15 16 16 17 17 17
22 22 22 21 22 23 23 23 24 24 23 24 26 26 26 27 28 29 30 31 32 31 30 29 28 27 27 26 26 26 27 28 30 32 34 37 37 37 37 36 34 32 30 29 27 26 24 22 21 19 17 16 15 15 14 13 12 11 10 8 7 6 5 4 3 3 1 1 2 3 3 4 5 6 8 10 12 14 14 14 15 14 14 16 17
22 23 23 22 23 24 24 24 25 24 23 25 27 28 28 29 31 32 33 33 33 32 30 28 27 26 24 24 25 27 29 32 34 35 36 37 37 36 36 34 32 31 29 27 26 25 23 22 22 20 19 18 17 17 15 14 13 12 11 9 8 7 5 4 3 2 1 1 2 3 3 4 5 6 8 9 10 12 12 14 16 15 15 16 17
23 24 24 24 25 25 25 26 26 25 25 26 28 29 30 31 32 33 34 34 33 32 31 29 26 23 23 25 28 31 33 35 36 37 37 37 36 35 34 33 31 30 28 26 25 24 23 22 21 21 20 19 18 17 16 15 15 14 12 11 10 9 8 6 4 3 2 2 3 4 4 4 4 6 7 8 8 9 12 15 16 16 17 17 15
25 25 26 26 27 26 27 27 27 27 28 28 29 30 30 31 31 31 31 31 31 30 29 27 25 23 25 29 32 34 35 36 37 38 38 37 36 34 33 32 31 29 27 26 24 23 23 22 21 21 19 19 18 17 17 16 15 14 13 12 12 11 8 6 5 4 3 2 3 5 4 4 4 5 7 8 8 10 13 15 14 14 15 17 15
27 27 28 29 29 28 28 29 28 28 29 30 31 31 31 32 31 31 31 31 30 29 28 26 25 26 29 33 35 36 37 37 38 38 37 37 35 34 33 32 31 29 27 26 25 24 23 22 22 20 19 18 18 17 17 16 15 14 13 13 13 12 9 7 5 4 3 2 3 4 5 5 5 7 8 8 9 10 12 12 12 12 13 14 15
28 29 29 30 31 30 30 30 30 30 31 31 32 32 32 32 31 31 32 31 30 29 27 26 27 29 33 35 37 38 38 37 37 37 37 36 35 34 34 32 31 29 28 26 25 25 24 22 21 20 19 18 18 17 17 16 15 14 14 13 13 12 10 9 7 5 4 2 3 4 5 5 5 6 7 6 7 9 10 10 10 10 11 12 14
29 29 29 30 30 31 31 31 31 31 32 32 33 32 32 31 31 30 30 30 30 28 26 28 30 32 34 36 36 37 38 38 37 37 36 35 35 35 34 33 31 30 29 28 27 25 24 23 22 21 19 18 17 18 17 15 14 14 13 13 13 13 11 10 8 6 4 3 3 3 4 4 4 4 5 5 7 8 8 8 8 8 10 12 13
28 27 27 28 28 29 30 31 32 32 33 33 32 32 31 31 30 30 29 28 28 28 28 30 32 33 34 34 34 35 38 38 37 37 36 36 35 35 34 33 32 32 31 30 28 26 25 24 22 21 19 17 17 17 16 15 14 14 14 13 12 12 11 9 8 6 4 4 3 3 3 3 4 4 4 5 7 7 7 7 8 8 9 11 12
26 27 27 27 28 28 29 30 31 31 32 32 31 31 30 30 30 30 30 29 28 29 30 32 33 32 33 33 33 34 37 39 39 37 37 37 36 35 34 33 33 33 32 31 30 28 27 26 23 21 19 17 17 17 17 16 14 14 13 12 10 9 8 7 6 5 4 3 3 2 2 3 4 3 4 6 6 7 7 7 8 8 9 10 12
27 28 28 29 30 30 30 30 29 29 30 31 30 30 29 29 30 31 31 30 30 31 32 33 32 31 31 32 32 34 35 37 39 39 38 37 36 35 34 33 32 32 32 31 30 29 28 27 24 22 20 19 18 17 17 16 15 13 12 10 9 8 7 6 5 5 4 3 2 2 2 2 2 3 4 5 6 7 8 8 8 8 8 10 12
27 28 29 30 30 31 31 30 30 30 30 30 30 29 28 29 30 32 32 32 32 32 33 33 32 31 30 30 31 33 34 35 37 39 39 37 36 35 33 32 30 29 29 30 30 30 29 27 25 22 21 19 18 17 16 16 14 13 11 9 8 7 6 6 6 5 5 4 3 3 2 1 1 2 4 5 6 6 7 7 8 8 8 10 11
26 28 29 29 30 30 30 30 30 30 30 30 30 29 29 30 31 32 32 33 34 34 33 33 33 32 30 29 29 31 33 33 35 37 38 37 36 34 32 31 29 28 28 27 28 29 28 26 24 22 21 20 18 17 16 15 14 13 11 10 9 8 8 8 7 6 5 5 4 4 3 2 1 2 4 5 5 6 7 8 8 9 10 11 10
26 27 28 28 28 29 28 28 29 29 30 30 30 29 29 30 32 34 34 34 36 36 34 34 34 33 31 30 30 31 32 33 34 34 35 35 35 34 33 31 30 29 28 27 27 28 27 25 23 21 20 18 17 17 17 16 15 14 12 11 10 10 10 9 8 7 7 6 6 5 4 2 1 2 3 4 6 7 8 9 10 11 13 13 11
25 26 26 26 26 27 26 26 26 27 28 29 29 29 28 29 31 34 35 36 37 37 36 35 34 32 31 31 31 31 31 32 33 33 33 32 32 33 33 31 30 29 28 27 26 25 25 24 22 21 19 18 19 20 19 18 17 16 14 13 12 12 11 11 10 9 8 7 7 6 4 3 2 2 3 4 6 8 9 10 11 12 12 12 12
24 24 24 24 24 25 26 24 23 24 25 25 25 26 27 29 32 36 38 38 37 36 36 37 35 34 34 32 32 32 32 31 32 33 32 30 30 32 32 31 31 31 30 28 27 27 26 23 21 21 21 22 22 22 20 19 18 17 16 15 15 14 13 12 11 10 9 8 7 6 5 3 2 2 3 4 5 7 8 10 11 11 12 12 10
24 24 23 22 23 24 23 22 23 24 24 24 25 26 28 31 35 39 42 42 41 40 40 41 42 42 40 37 34 32 30 31 35 38 38 36 35 35 35 34 34 35 34 31 30 28 26 24 22 23 25 25 24 23 22 21 20 19 18 18 17 16 14 12 11 10 9 9 7 6 5 4 3 3 3 4 4 6 8 9 10 11 11 10 7
22 22 21 21 21 22 21 20 22 24 24 24 26 28 31 33 36 39 41 42 44 44 43 44 46 47 45 43 41 37 34 38 44 45 44 43 42 40 40 40 39 38 37 34 32 30 29 27 27 28 28 27 26 26 26 25 23 22 21 20 18 17 16 14 13 12 10 9 8 7 6 5 4 4 3 4 5 6 8 8 9 11 11 9 7
20 19 20 20 21 23 23 23 24 25 25 26 25 25 27 30 33 35 36 37 38 39 39 41 43 42 42 44 46 44 42 45 48 46 43 42 42 41 41 41 40 38 36 35 33 32 32 31 31 31 31 30 30 30 29 28 27 26 24 22 21 19 17 16 15 13 11 10 9 7 7 6 5 5 4 4 5 6 7 8 9 10 11 10 9
21 20 21 22 23 24 24 24 25 25 25 27 26 24 24 25 28 30 31 32 33 34 35 37 37 37 38 41 43 43 39 37 39 42 42 41 41 40 39 38 38 38 37 36 35 34 34 35 35 34 34 34 34 34 33 32 31 29 27 25 23 21 19 18 17 15 13 11 10 9 8 7 6 5 5 4 5 5 6 8 9 9 10 9 9
22 22 22 22 22 22 23 23 24 24 24 25 25 24 23 21 21 25 27 28 30 32 34 35 35 36 38 39 40 40 37 32 31 36 41 40 38 38 37 36 37 36 35 36 36 35 35 37 37 37 37 36 36 36 34 33 33 31 29 27 25 23 22 20 18 16 15 13 11 10 9 8 7 6 5 5 5 5 6 7 8 8 10 9 8
20 20 21 20 19 20 21 21 22 23 24 24 25 26 24 20 18 20 23 25 28 30 32 34 35 36 37 38 38 39 39 35 30 32 37 38 36 34 33 33 33 33 34 36 37 36 36 37 38 38 38 38 37 36 34 33 33 32 30 28 26 24 23 21 19 17 16 14 13 12 11 9 8 7 6 5 4 4 5 6 7 7 8 7 8
17 17 18 18 19 20 20 21 22 23 24 25 26 27 27 25 23 22 21 21 22 26 31 35 35 35 35 35 36 37 38 37 34 32 34 36 34 31 28 27 26 28 32 37 38 37 35 34 35 37 38 38 37 35 34 34 34 32 31 29 26 24 23 22 20 19 17 16 14 13 12 11 9 8 7 6 5 5 5 5 5 6 6 6 7
15 15 14 15 17 18 19 21 22 22 23 25 26 27 28 28 27 26 25 24 23 25 30 33 35 35 34 33 33 35 36 36 35 33 32 34 33 28 25 25 25 28 32 35 36 36 36 36 37 37 38 38 37 35 35 35 35 34 32 29 27 26 24 23 22 20 18 17 16 15 13 12 10 9 8 7 6 6 5 5 5 5 6 6 6
15 14 13 13 14 16 17 19 20 21 22 23 24 25 26 25 25 24 25 27 27 24 24 27 30 31 32 32 32 32 32 34 34 32 30 31 32 30 30 33 35 36 37 38 38 37 39 41 41 40 39 39 37 36 36 36 35 34 32 30 28 27 26 24 22 21 19 18 17 16 15 13 11 10 9 8 8 7 7 6 6 5 5 6 6
15 14 14 13 14 14 15 16 18 19 20 20 21 22 21 22 22 19 17 19 21 19 18 21 25 26 27 30 31 30 29 30 31 29 27 28 31 34 38 41 41 39 39 40 40 38 38 41 43 43 41 40 38 37 36 36 36 34 32 30 29 27 26 24 22 21 20 19 19 17 16 14 13 11 11 10 9 8 8 8 7 6 6 6 6
14 14 13 13 13 13 13 14 15 16 17 18 18 19 18 18 19 18 15 15 16 15 14 18 22 24 26 28 28 27 25 24 24 26 27 28 32 36 40 41 40 39 40 42 42 40 38 40 43 45 44 41 39 38 37 37 36 35 33 31 30 28 26 24 22 22 21 21 20 19 17 15 14 12 12 12 11 10 9 9 8 7 7 7 6
12 12 12 11 11 11 12 13 13 14 15 16 16 17 17 16 16 16 15 14 15 16 16 18 22 26 27 27 26 24 24 25 27 30 32 33 36 40 42 42 41 39 40 42 43 41 39 39 40 42 44 43 41 39 38 38 37 36 34 33 32 30 28 26 25 24 23 22 21 20 18 16 15 14 13 13 12 11 10 10 10 9 8 7 7
11 11 10 10 10 11 11 12 13 14 15 16 16 17 18 17 16 15 14 14 14 16 17 19 22 25 27 27 27 27 29 31 32 34 35 37 39 40 42 44 44 42 40 40 41 43 44 43 41 41 43 43 41 40 39 38 38 37 35 35 34 32 31 29 27 24 24 23 22 21 19 17 15 15 15 14 13 12 11 11 10 10 9 9 9
7 8 8 9 9 10 10 11 13 14 15 16 17 17 18 19 19 18 17 17 18 18 20 22 23 23 24 25 27 29 32 33 32 31 33 36 38 38 39 41 41 40 38 35 36 41 46 46 44 43 43 42 42 41 39 39 39 38 37 36 35 33 32 30 27 25 24 24 23 22 20 18 16 16 16 14 13 12 12 11 11 11 11 10 9
4 4 5 6 7 8 9 10 11 12 13 14 15 16 16 18 19 19 19 20 20 21 22 24 23 22 22 23 24 28 32 35 34 31 31 34 36 37 38 37 36 38 39 37 36 39 43 43 43 44 44 42 42 43 42 41 41 40 39 38 37 35 33 31 28 26 25 25 24 23 20 18 17 17 16 14 14 13 13 12 12 12 12 11 9
4 3 3 4 5 6 8 9 10 11 12 13 15 16 16 17 17 17 17 18 19 19 20 21 22 22 22 22 23 26 31 35 35 33 32 33 34 36 37 37 37 39 40 39 37 37 39 40 42 44 44 43 42 43 43 42 41 41 40 39 38 37 35 32 29 27 26 26 25 23 21 19 19 18 17 15 14 14 13 13 13 13 13 12 10
5 4 3 3 4 5 6 8 9 10 12 13 14 15 16 16 16 15 14 16 19 21 22 22 22 22 22 22 23 25 30 33 35 34 34 34 34 33 35 37 39 41 42 42 40 38 39 41 42 44 45 43 42 41 42 42 41 41 41 41 40 38 35 32 30 28 27 26 25 24 22 21 20 19 18 16 15 14 14 14 14 14 14 12 10
4 3 2 2 3 4 6 7 8 10 11 11 11 12 13 14 14 14 14 14 16 18 21 24 24 24 23 24 26 28 30 33 35 35 35 36 36 35 35 37 39 42 44 45 44 42 42 44 45 44 44 44 42 42 41 41 41 41 40 40 39 37 34 32 29 27 26 25 25 24 23 21 20 20 18 17 15 15 15 14 14 15 15 13 11
4 2 2 2 4 5 6 7 8 9 10 10 9 10 11 12 13 14 15 16 16 16 18 21 23 24 25 26 27 29 31 33 35 36 36 37 38 39 39 41 43 44 46 47 47 46 46 48 47 46 45 44 44 44 43 42 42 42 41 39 37 34 32 29 27 25 24 25 25 24 23 21 20 20 19 17 16 16 16 15 15 16 16 15 14
4 3 2 3 4 5 6 6 7 8 8 9 9 9 10 10 11 12 14 16 18 19 19 19 21 23 25 27 28 30 32 33 35 37 38 38 39 38 37 38 39 41 44 46 47 47 48 49 49 47 45 44 44 45 45 44 43 42 40 38 36 34 31 29 27 26 26 26 26 25 23 21 21 20 19 18 17 17 16 16 17 17 16 16 15
4 3 3 3 4 5 6 6 7 7 8 8 9 10 10 11 11 12 12 13 15 17 18 19 20 21 24 26 28 30 31 33 35 37 38 39 39 38 37 37 37 37 39 42 43 44 45 47 47 47 45 44 44 45 44 42 41 40 39 38 36 34 32 30 28 27 27 26 26 24 23 22 21 21 20 19 18 18 18 18 18 18 16 15 15
3 3 2 3 4 5 6 6 6 6 7 7 8 9 10 11 11 12 12 13 13 14 15 17 18 19 20 23 25 27 29 30 33 35 37 38 39 39 39 39 39 39 39 40 41 41 42 45 46 46 46 45 45 44 42 41 40 39 39 37 35 33 32 30 28 27 26 26 25 24 23 22 22 21 21 20 19 18 19 19 19 18 17 15 15
2 1 1 2 3 5 6 6 6 7 8 8 9 9 9 10 11 11 12 13 14 14 14 16 16 17 18 20 23 26 28 29 31 34 35 37 38 38 37 36 37 38 38 39 38 39 41 45 46 47 46 45 43 42 41 40 39 38 37 35 33 32 31 29 27 26 26 26 26 25 24 23 23 22 22 21 20 20 20 21 21 20 18 16 15
1 1 1 2 3 4 6 7 8 9 10 10 9 9 8 9 9 10 10 11 13 13 14 15 16 17 18 19 20 23 26 28 29 31 32 33 35 35 33 31 32 34 36 37 37 38 41 43 45 45 44 42 40 40 41 40 38 36 34 32 31 31 29 28 28 27 26 26 26 25 24 23 23 23 22 22 21 21 21 22 22 21 18 17 16
Wind_Direction
216 213 213 213 214 215 215 216 216 216 216 214 214 217 220 222 224 227 230 231 230 229 229 229 228 225 220 216 213 212 214 213 212 213 213 211 208 201 192 189 188 183 180 180 182 186 190 196 201 195 185 179 176 174 170 161 156 156 151 146 154 149 142 175 231 254 266 300 326 332 337 351 357 353 353 355 354 353 354 356 354 352 353 352 351
214 213 213 212 213 213 214 215 216 217 216 215 217 220 222 223 226 229 229 229 228 226 227 227 225 222 217 214 211 208 210 211 209 208 206 202 196 189 185 185 184 181 179 181 185 189 193 195 189 178 173 175 172 166 162 157 154 156 156 155 159 160 149 161 200 245 269 298 325 338 345 353 354 353 356 356 354 355 356 355 352 351 352 350 348
211 210 209 211 211 212 214 216 217 217 217 217 219 222 224 224 227 227 226 226 224 223 226 225 220 216 214 211 209 208 206 205 205 203 199 195 190 185 183 183 183 182 182 186 190 190 188 183 177 172 171 170 165 162 161 160 161 161 161 162 165 165 150 139 152 208 269 301 328 340 346 353 354 355 356 355 354 355 353 350 346 346 348 346 343
208 206 206 208 209 210 213 214 215 215 215 217 219 220 222 222 223 222 221 222 221 220 221 219 215 211 208 204 203 203 200 197 197 196 194 191 187 183 181 181 184 186 187 191 191 186 180 174 171 172 171 167 165 164 164 165 165 164 163 164 161 153 137 104 97 149 268 300 324 336 342 347 349 353 353 351 352 353 347 340 339 341 344 343 341
202 200 200 203 205 208 209 210 211 212 212 215 216 216 218 218 217 216 216 216 216 215 213 213 211 207 203 200 198 197 194 191 189 186 185 186 185 184 184 184 186 188 190 190 185 178 175 174 173 172 171 170 167 166 168 167 164 165 164 161 151 132 117 96 74 67 293 295 313 331 339 339 341 348 348 347 348 347 342 340 339 339 341 340 339
194 194 195 197 199 201 203 205 207 208 209 210 211 212 213 212 210 212 214 212 210 209 209 207 205 202 199 195 193 191 188 185 183 180 181 183 185 186 187 187 187 187 186 182 176 174 175 175 174 172 173 176 173 170 169 166 165 166 159 149 140 122 110 96 73 53 314 294 307 324 334 338 339 341 344 346 345 341 342 343 341 338 336 335 337
189 192 193 193 195 196 197 200 202 203 204 204 205 207 207 206 206 209 210 208 206 205 203 200 197 197 195 190 187 186 183 182 182 184 186 187 187 187 187 186 185 182 178 174 172 174 175 175 174 173 176 179 176 172 170 169 168 162 153 143 128 118 117 114 99 25 287 299 314 323 329 336 338 337 340 344 344 344 348 345 338 334 334 331 330
187 189 189 190 191 192 192 194 196 197 198 199 200 201 201 202 204 205 204 202 203 200 197 196 194 192 189 186 185 184 182 183 186 188 188 188 190 190 186 183 179 174 171 170 171 172 173 174 174 174 177 178 176 174 171 171 167 155 148 138 125 122 134 151 159 229 279 307 323 327 329 333 338 339 341 347 350 349 348 342 331 327 329 325 321
186 187 187 187 187 187 187 188 190 192 193 194 194 195 198 198 197 198 197 197 197 194 195 197 193 187 183 182 183 184 185 188 189 190 190 191 192 188 181 177 174 171 168 167 168 170 171 173 173 174 176 175 175 174 170 167 160 152 143 133 127 131 143 155 166 213 285 319 330 334 336 338 346 347 346 351 349 338 336 335 326 323 325 321 319
186 185 185 186 186 185 185 185 185 186 187 189 191 192 192 190 190 192 192 192 192 191 191 190 186 183 180 180 182 185 190 193 193 193 198 198 191 181 174 173 172 170 169 166 166 168 170 171 170 171 173 172 171 169 166 162 154 148 142 134 133 135 138 146 162 177 292 327 337 338 337 337 346 349 343 342 339 331 331 332 326 325 326 322 322
186 185 184 185 185 184 184 182 181 181 183 187 190 189 186 185 188 190 188 188 188 187 184 182 181 181 182 183 185 188 192 196 196 197 199 195 185 177 172 172 172 171 170 168 167 168 168 168 167 168 170 168 165 163 161 155 146 140 138 136 137 139 138 143 153 155 283 325 330 335 335 328 336 344 340 336 334 330 329 327 323 325 327 326 322
188 185 184 186 186 184 182 181 180 181 184 187 187 184 184 186 187 186 184 184 183 181 180 180 180 182 184 185 188 191 195 198 197 196 192 186 180 176 174 173 172 172 171 171 170 168 167 167 167 168 169 166 164 162 155 148 142 139 138 137 136 138 139 141 144 146 152 309 322 327 323 320 327 336 336 332 327 324 322 319 320 320 320 322 312
190 186 185 188 187 184 182 182 181 181 184 187 184 182 184 186 185 183 180 178 177 177 179 180 180 182 186 189 193 196 197 195 192 190 185 180 178 177 176 175 174 174 174 174 173 171 170 170 169 168 168 167 165 160 153 148 146 144 142 142 142 144 148 148 142 136 140 226 293 304 306 312 318 320 327 327 321 319 318 314 315 313 311 314 303
192 188 186 188 189 185 183 184 183 181 185 188 184 181 184 183 181 180 179 177 177 178 180 182 184 187 192 197 198 196 192 188 186 184 181 179 179 179 176 175 176 176 177 176 175 174 175 174 171 169 170 170 167 161 155 153 153 152 151 152 157 160 165 168 161 158 162 195 247 271 282 290 300 310 318 320 315 316 314 308 310 310 305 302 295
192 191 190 189 189 187 186 185 183 182 185 188 184 181 181 180 180 180 180 182 183 183 183 185 188 192 198 199 194 189 186 184 182 182 181 180 180 179 177 177 177 176 176 177 177 177 177 176 174 173 173 172 169 163 160 160 161 161 161 164 168 169 174 181 178 185 198 205 236 259 264 277 304 310 310 316 315 309 305 305 309 310 304 302 301
194 194 194 192 190 190 188 187 185 184 183 184 183 182 180 180 182 182 182 183 185 185 186 188 192 196 197 194 189 185 183 182 182 182 182 181 181 180 178 177 176 175 175 177 178 178 177 177 177 177 176 174 170 165 165 166 167 166 166 168 171 173 180 188 182 187 206 216 248 265 263 265 287 287 287 302 309 305 308 315 321 319 312 312 313
198 196 196 194 192 192 192 189 187 186 184 182 183 183 182 183 184 184 185 184 185 187 188 191 197 198 195 190 187 183 181 182 184 184 184 183 182 180 179 177 176 175 175 177 178 178 179 180 180 178 177 174 170 168 169 170 170 170 170 172 173 174 181 190 192 194 203 231 263 270 268 264 269 278 285 293 301 310 321 327 328 325 321 319 317
202 198 198 197 194 193 193 192 189 189 188 187 186 186 187 188 188 187 188 188 188 189 192 195 197 195 192 189 186 183 181 181 185 186 185 185 184 182 180 177 175 175 175 176 178 180 182 183 182 180 179 177 173 170 172 174 173 174 176 176 176 177 180 186 191 192 193 216 248 253 267 277 277 283 293 303 314 326 332 326 320 320 319 313 309
204 200 199 198 196 194 193 193 193 192 192 191 191 191 190 191 191 189 189 190 190 191 195 196 193 190 188 187 184 183 182 182 185 188 187 187 187 185 183 179 176 176 176 177 179 181 183 184 183 182 182 181 177 175 175 177 177 179 182 182 182 180 179 181 183 181 184 203 226 242 260 275 280 286 304 322 331 336 334 321 313 313 307 301 303
205 203 202 200 199 198 196 195 195 195 195 194 194 194 194 193 192 190 190 191 191 192 194 193 188 185 184 184 183 184 183 182 186 189 189 189 190 189 187 184 181 180 180 180 180 179 181 183 184 184 184 182 180 179 180 181 183 185 187 189 188 183 178 177 174 169 177 197 211 233 254 266 275 290 314 329 331 333 333 324 315 305 295 293 298
205 205 205 204 204 204 202 201 200 198 197 197 195 195 196 196 195 193 191 190 190 191 190 187 184 183 183 184 185 186 186 185 187 189 191 192 193 194 193 191 190 188 185 183 183 182 182 184 185 185 184 183 183 184 185 186 189 192 193 193 192 185 178 173 166 165 181 198 207 222 241 261 278 302 328 332 331 330 327 325 320 306 289 284 291
204 203 204 205 206 207 206 206 206 204 202 200 196 195 196 198 198 195 193 191 190 189 186 182 182 182 183 186 188 188 188 188 188 190 193 194 196 197 197 198 197 194 189 185 186 187 187 186 187 186 184 183 186 188 188 190 193 196 198 196 190 183 178 173 170 177 191 198 203 215 224 245 283 322 337 335 333 330 326 326 323 314 299 289 285
202 201 202 203 204 205 205 206 206 204 202 201 199 198 197 196 195 193 191 189 187 184 183 182 182 181 183 188 190 190 191 191 191 192 194 196 197 198 200 201 201 200 197 193 192 191 190 190 189 186 183 184 186 188 189 192 195 199 201 199 192 187 183 184 188 193 197 196 196 200 207 217 272 326 334 333 331 329 330 330 329 330 325 315 301
199 199 200 201 201 202 202 203 203 202 201 199 197 195 193 190 188 189 189 187 183 182 182 182 182 182 184 187 190 192 193 193 194 194 196 197 198 198 200 202 202 202 202 200 198 195 193 193 190 185 183 184 184 186 191 196 199 201 203 201 197 194 194 197 201 199 194 191 189 189 200 214 264 319 320 322 326 331 340 342 342 344 342 337 331
195 196 197 198 199 199 199 199 200 200 199 196 191 187 185 185 186 188 188 186 184 183 183 184 185 185 185 186 189 192 194 195 196 197 197 198 199 199 200 202 202 202 202 203 202 199 197 195 190 185 184 183 182 186 193 199 203 206 206 204 202 202 204 205 205 200 193 190 189 189 197 212 259 306 308 319 333 344 350 350 349 353 351 347 348
193 195 196 196 198 198 196 195 197 198 196 194 192 189 187 186 188 189 189 189 188 187 186 186 187 187 188 189 189 190 193 195 198 198 197 198 200 200 201 201 202 202 202 203 202 199 196 193 188 183 181 183 188 194 197 200 204 207 207 206 206 208 210 209 205 202 197 193 192 194 199 208 239 287 310 332 346 352 354 352 351 354 354 350 347
192 193 194 194 195 197 195 193 194 195 194 193 194 194 193 192 193 193 192 192 192 191 189 189 189 190 191 191 190 191 193 195 198 198 197 196 198 200 200 201 202 201 201 201 199 196 193 189 185 185 186 189 196 202 202 203 206 208 207 208 210 211 212 210 208 206 203 199 198 201 205 211 229 271 309 335 350 350 350 354 355 354 355 353 340
192 192 192 193 196 196 195 195 196 196 196 196 197 198 199 199 200 200 199 198 196 194 193 193 194 195 193 191 189 190 192 196 199 199 198 195 196 197 198 200 201 200 200 199 195 191 187 184 185 189 191 193 197 204 207 208 209 210 209 210 211 211 211 210 208 208 206 202 201 203 213 226 237 258 302 326 341 346 348 355 358 354 357 359 332
188 190 190 194 197 196 195 198 200 198 198 200 203 205 206 205 206 207 208 207 204 201 199 199 200 200 197 195 192 190 195 203 205 203 201 199 198 199 200 202 203 202 200 198 193 187 184 186 190 194 194 195 199 204 208 209 209 210 211 211 211 210 209 209 209 210 208 205 204 208 215 230 248 264 292 315 330 343 349 353 355 356 359 355 329
183 187 189 193 196 196 197 201 202 201 201 201 203 207 209 209 209 210 212 212 210 208 206 206 206 205 203 203 202 199 203 210 210 205 202 201 201 202 204 204 204 202 198 195 193 190 189 190 194 197 198 199 202 205 207 208 209 210 210 210 210 209 208 209 211 212 210 208 207 212 218 228 246 264 281 304 322 335 343 348 351 356 359 352 334
184 188 192 195 198 198 199 201 201 200 202 202 201 203 207 211 213 215 216 215 214 214 214 214 213 211 210 211 211 209 211 217 215 208 203 202 203 204 204 205 205 202 198 196 196 196 197 197 198 201 202 204 206 209 210 210 211 211 210 209 209 209 209 210 211 210 211 211 210 213 219 228 239 255 271 293 313 324 334 345 350 353 356 352 336
190 193 196 199 199 198 199 200 199 199 201 202 202 203 204 206 212 217 219 220 218 218 219 220 220 220 219 219 219 217 218 223 222 213 207 204 204 204 204 206 206 203 200 199 200 200 202 203 203 204 206 208 211 213 213 214 214 213 211 210 209 209 209 211 212 211 211 212 213 214 220 227 234 246 261 280 302 318 327 338 346 350 353 352 339
199 200 199 197 197 198 200 201 200 200 202 202 203 204 204 201 203 209 214 220 223 224 224 224 225 225 225 225 225 224 224 226 226 220 212 208 205 204 204 206 207 202 199 201 204 205 206 207 209 211 212 213 215 215 216 218 219 217 215 214 212 212 212 211 211 212 211 212 213 215 219 223 228 239 252 265 283 303 315 326 337 346 348 341 328
203 206 205 202 200 201 202 203 204 205 206 206 206 207 208 209 208 205 204 209 217 223 226 227 227 228 228 228 229 229 228 228 228 225 218 212 207 203 202 202 204 204 205 207 209 209 209 209 212 215 217 218 219 219 219 222 223 220 219 217 215 214 213 211 211 213 212 212 212 214 218 221 223 229 241 254 268 282 294 305 319 333 336 327 318
203 207 209 208 207 207 208 209 209 210 210 211 211 212 213 215 215 212 209 209 210 216 222 225 226 227 229 231 231 232 232 231 229 228 222 214 206 200 195 195 197 201 208 212 213 213 214 215 217 219 221 222 222 222 223 225 225 223 221 219 216 214 213 212 213 214 213 213 214 214 217 220 221 225 234 242 249 259 274 284 292 311 324 323 317
201 203 205 208 211 213 215 216 216 215 216 216 217 218 218 218 217 217 218 219 219 220 223 225 226 227 230 232 233 234 235 233 230 228 222 212 204 197 195 198 200 202 207 212 215 217 221 222 223 224 224 224 224 225 225 227 227 226 224 222 220 218 217 215 215 216 216 216 217 217 217 218 220 224 230 239 246 250 259 271 278 292 312 320 318
201 203 207 210 212 215 218 221 222 222 222 222 222 222 222 222 221 221 222 224 225 226 228 229 228 227 228 231 232 232 232 232 230 227 220 210 204 204 205 207 207 207 209 212 215 217 221 223 223 224 225 225 226 226 227 228 228 227 226 224 222 222 221 219 218 219 219 219 219 219 219 219 220 224 227 234 242 248 254 264 272 280 294 310 315
203 207 210 212 214 215 218 222 224 223 223 223 223 223 223 223 223 224 225 227 229 228 229 231 229 226 226 229 227 224 224 224 221 219 214 208 205 208 211 213 213 212 213 216 217 218 221 224 224 224 225 226 226 226 226 227 227 226 224 223 222 222 222 220 219 220 221 223 223 222 221 220 221 224 228 233 238 244 248 254 260 268 283 300 304
200 206 210 211 213 215 217 220 222 220 220 221 222 223 223 223 223 224 226 228 230 228 228 231 231 229 229 229 224 216 211 210 209 208 207 206 207 210 213 215 215 215 217 219 219 219 221 225 226 226 226 226 226 226 226 226 226 225 223 221 221 221 220 219 219 220 222 225 226 225 223 222 222 225 229 233 238 242 247 251 256 262 271 283 289
192 200 205 208 212 216 219 221 222 222 222 223 224 226 226 225 225 225 226 227 229 230 230 232 234 234 234 231 223 214 210 211 212 211 210 209 210 212 215 216 216 216 218 219 219 220 222 225 228 229 228 226 226 226 226 227 226 225 223 221 221 221 220 220 220 221 223 226 228 227 225 223 223 226 230 233 237 241 245 250 256 261 265 272 281
185 195 202 208 213 217 221 223 224 226 227 228 229 229 229 230 230 230 231 232 235 237 239 239 240 240 239 235 228 220 217 218 219 218 217 216 215 216 218 220 221 221 221 220 220 223 225 228 230 231 230 229 228 227 226 226 226 225 223 222 222 221 222 222 220 220 222 225 226 227 226 224 224 227 230 232 236 240 245 249 253 258 265 268 273
162 182 200 213 219 221 225 230 234 237 237 236 236 236 236 238 239 238 238 240 240 241 242 243 244 244 241 238 233 227 224 224 225 224 223 224 223 223 224 226 226 227 226 224 225 228 230 231 232 232 232 230 229 227 225 224 224 224 224 224 223 222 222 221 219 218 219 222 225 226 225 224 225 228 229 230 233 237 242 248 252 256 260 262 264
132 148 176 211 225 229 234 240 243 244 244 244 245 246 246 247 247 246 246 246 245 245 245 246 247 245 242 239 236 231 227 228 228 228 228 228 228 229 230 231 232 233 232 230 229 230 234 236 236 235 234 232 230 228 227 226 225 224 224 225 225 225 223 222 219 217 217 220 223 224 224 223 225 228 228 228 231 236 241 245 251 255 255 256 259
121 130 154 197 222 234 241 245 246 247 249 251 252 253 252 251 250 249 249 249 250 250 251 251 251 250 246 241 236 231 229 230 231 231 232 233 234 234 234 235 236 236 236 235 233 233 235 240 241 240 239 236 232 230 230 230 228 227 227 226 226 226 225 224 222 219 218 220 222 223 223 223 224 227 229 229 230 235 240 244 248 252 253 253 255
117 129 162 207 229 239 245 249 249 251 253 253 253 253 252 251 250 248 248 250 252 253 254 255 255 253 249 244 239 235 234 235 235 233 233 235 236 237 238 238 239 240 240 240 239 237 238 241 243 243 242 239 233 230 230 230 229 229 230 229 229 228 228 227 225 221 219 220 223 223 223 224 225 228 232 233 233 236 241 245 248 249 250 250 251
130 147 192 225 239 246 253 255 255 255 254 251 249 249 249 248 248 248 250 252 253 254 256 257 257 254 251 247 244 241 240 240 240 238 237 237 238 238 239 240 241 242 243 243 242 241 241 242 243 245 246 242 236 232 230 229 228 228 228 229 230 231 231 230 227 221 217 219 222 224 224 226 228 231 233 235 237 239 243 246 247 246 247 250 254
143 164 199 226 241 249 253 254 253 252 249 245 244 247 249 248 249 251 254 257 258 257 257 257 256 255 254 251 249 248 247 246 245 244 243 243 243 242 242 243 243 243 244 245 244 242 242 242 244 245 246 244 239 233 230 228 227 226 226 226 227 228 229 227 223 218 216 218 222 224 224 225 229 232 234 236 239 242 244 247 247 247 248 251 255
145 163 193 221 237 246 250 251 249 248 245 245 247 249 251 252 254 255 256 258 258 257 257 257 256 257 258 258 256 254 253 252 251 250 249 249 248 248 247 247 247 247 247 248 247 244 243 243 244 245 245 244 241 235 231 229 228 226 226 227 227 227 227 226 222 218 217 219 221 223 225 227 230 234 236 238 240 242 246 248 248 247 249 251 253
135 155 192 224 239 247 251 251 248 246 246 248 253 256 257 258 259 260 261 262 262 260 260 261 260 260 261 261 261 259 258 256 255 254 254 254 254 254 253 253 252 251 250 250 249 246 245 246 248 248 248 249 246 239 232 229 228 227 227 228 228 228 228 227 224 221 220 221 222 224 225 228 231 235 238 241 243 245 247 249 248 247 247 248 249
107 140 199 232 246 254 257 256 255 256 257 259 262 264 265 264 265 266 266 267 268 267 266 265 265 265 264 264 265 264 263 261 260 260 260 260 260 259 258 257 255 252 251 250 250 249 249 251 252 252 252 251 247 239 231 229 228 228 229 229 229 228 228 226 224 223 222 223 225 226 226 228 231 235 238 242 244 246 247 249 249 248 247 245 246
46 13 283 264 264 267 268 269 270 270 270 269 268 267 266 266 267 268 266 265 266 267 267 267 266 266 265 265 266 266 265 265 265 265 264 264 264 264 261 258 255 253 251 251 252 252 252 254 256 256 256 252 243 234 229 229 229 229 229 229 228 228 227 226 225 225 226 226 228 228 228 229 232 235 239 242 245 247 248 249 249 248 247 245 246